Time,TemperatureF,DewpointF,PressureIn,WindDirection,WindDirectionDegrees,WindSpeedMPH,WindSpeedGustMPH,Humidity,HourlyPrecipIn,Conditions,Clouds,dailyrainin,SoftwareType,DateUTC
2013-01-13 00:00:00,65.0,64.0,29.71,South,170,11.0,13.0,98,-99.99,,,-99.99,,2013-01-13 06:00:00,
2013-01-13 00:22:00,65.0,64.0,29.71,South,170,11.0,13.0,98,-99.99,,,-99.99,,2013-01-13 06:22:00,
2013-01-13 00:32:00,65.0,64.0,29.71,South,170,11.0,13.0,98,-99.99,,,-99.99,,2013-01-13 06:32:00,
2013-01-13 00:42:00,65.0,64.0,29.71,South,170,11.0,13.0,98,-99.99,,,-99.99,,2013-01-13 06:42:00,
2013-01-13 00:52:00,65.0,64.0,29.71,South,170,11.0,13.0,98,-99.99,,,-99.99,,2013-01-13 06:52:00,
2013-01-13 01:00:00,67.0,67.0,29.75,SSW,200,7.0,8.0,98,-99.99,,,-99.99,,2013-01-13 07:00:00,
2013-01-13 01:21:00,67.0,67.0,29.75,SSW,200,7.0,8.0,98,-99.99,,,-99.99,,2013-01-13 07:21:00,
2013-01-13 01:32:00,67.0,67.0,29.75,SSW,200,7.0,8.0,98,-99.99,,,-99.99,,2013-01-13 07:32:00,
2013-01-13 01:42:00,67.0,67.0,29.75,SSW,200,7.0,8.0,98,-99.99,,,-99.99,,2013-01-13 07:42:00,
2013-01-13 01:52:00,67.0,67.0,29.75,SSW,200,7.0,8.0,98,-99.99,,,-99.99,,2013-01-13 07:52:00,
2013-01-13 02:00:00,66.0,66.0,29.76,ESE,110,2.0,2.0,99,-99.99,,,-99.99,,2013-01-13 08:00:00,
2013-01-13 02:22:00,66.0,66.0,29.76,ESE,110,2.0,2.0,99,-99.99,,,-99.99,,2013-01-13 08:22:00,
2013-01-13 02:32:00,66.0,66.0,29.76,ESE,110,2.0,2.0,99,-99.99,,,-99.99,,2013-01-13 08:32:00,
2013-01-13 02:42:00,66.0,66.0,29.76,ESE,110,2.0,2.0,99,-99.99,,,-99.99,,2013-01-13 08:42:00,
2013-01-13 02:52:00,66.0,66.0,29.76,ESE,110,2.0,2.0,99,-99.99,,,-99.99,,2013-01-13 08:52:00,
2013-01-13 03:00:00,65.0,65.0,29.78,NNE,20,2.0,3.0,99,-99.99,,,-99.99,,2013-01-13 09:00:00,
2013-01-13 03:22:00,65.0,65.0,29.78,NNE,20,2.0,3.0,99,-99.99,,,-99.99,,2013-01-13 09:22:00,
2013-01-13 03:32:00,65.0,65.0,29.78,NNE,20,2.0,3.0,99,-99.99,,,-99.99,,2013-01-13 09:32:00,
2013-01-13 03:42:00,65.0,65.0,29.78,NNE,20,2.0,3.0,99,-99.99,,,-99.99,,2013-01-13 09:42:00,
2013-01-13 03:52:00,65.0,65.0,29.78,NNE,20,2.0,3.0,99,-99.99,,,-99.99,,2013-01-13 09:52:00,
2013-01-13 04:00:00,58.0,57.0,29.79,North,350,20.0,24.0,98,-99.99,,,-99.99,,2013-01-13 10:00:00,
2013-01-13 04:22:00,58.0,57.0,29.79,North,350,20.0,24.0,98,-99.99,,,-99.99,,2013-01-13 10:22:00,
2013-01-13 04:42:00,58.0,57.0,29.79,North,350,20.0,24.0,98,-99.99,,,-99.99,,2013-01-13 10:42:00,
2013-01-13 04:52:00,58.0,57.0,29.79,North,350,20.0,24.0,98,-99.99,,,-99.99,,2013-01-13 10:52:00,
2013-01-13 05:00:00,51.0,49.0,29.84,NNW,340,28.0,32.0,94,-99.99,,,-99.99,,2013-01-13 11:00:00,
2013-01-13 05:22:00,51.0,49.0,29.84,NNW,340,28.0,32.0,94,-99.99,,,-99.99,,2013-01-13 11:22:00,
2013-01-13 05:42:00,51.0,49.0,29.84,NNW,340,28.0,32.0,94,-99.99,,,-99.99,,2013-01-13 11:42:00,
2013-01-13 05:52:00,51.0,49.0,29.84,NNW,340,28.0,32.0,94,-99.99,,,-99.99,,2013-01-13 11:52:00,
2013-01-13 06:00:00,48.0,47.0,29.88,North,350,30.0,36.0,94,-99.99,,,-99.99,,2013-01-13 12:00:00,
2013-01-13 06:22:00,48.0,47.0,29.88,North,350,30.0,36.0,94,-99.99,,,-99.99,,2013-01-13 12:22:00,
2013-01-13 06:32:00,48.0,47.0,29.88,North,350,30.0,36.0,94,-99.99,,,-99.99,,2013-01-13 12:32:00,
2013-01-13 06:42:00,48.0,47.0,29.88,North,350,30.0,36.0,94,-99.99,,,-99.99,,2013-01-13 12:42:00,
2013-01-13 06:52:00,48.0,47.0,29.88,North,350,30.0,36.0,94,-99.99,,,-99.99,,2013-01-13 12:52:00,
2013-01-13 07:00:00,47.0,45.0,29.93,NNW,340,26.0,30.0,94,-99.99,,,-99.99,,2013-01-13 13:00:00,
2013-01-13 07:22:00,47.0,45.0,29.93,NNW,340,26.0,30.0,94,-99.99,,,-99.99,,2013-01-13 13:22:00,
2013-01-13 07:32:00,47.0,45.0,29.93,NNW,340,26.0,30.0,94,-99.99,,,-99.99,,2013-01-13 13:32:00,
2013-01-13 07:42:00,47.0,45.0,29.93,NNW,340,26.0,30.0,94,-99.99,,,-99.99,,2013-01-13 13:42:00,
2013-01-13 07:52:00,47.0,45.0,29.93,NNW,340,26.0,30.0,94,-99.99,,,-99.99,,2013-01-13 13:52:00,
2013-01-13 08:00:00,47.0,44.0,29.97,North,350,22.0,28.0,89,-99.99,,,-99.99,,2013-01-13 14:00:00,
2013-01-13 08:22:00,47.0,44.0,29.97,North,350,22.0,28.0,89,-99.99,,,-99.99,,2013-01-13 14:22:00,
2013-01-13 08:32:00,47.0,44.0,29.97,North,350,22.0,28.0,89,-99.99,,,-99.99,,2013-01-13 14:32:00,
2013-01-13 08:42:00,47.0,44.0,29.97,North,350,22.0,28.0,89,-99.99,,,-99.99,,2013-01-13 14:42:00,
2013-01-13 08:52:00,47.0,44.0,29.97,North,350,22.0,28.0,89,-99.99,,,-99.99,,2013-01-13 14:52:00,
2013-01-13 09:00:00,47.0,42.0,30.00,NNW,340,23.0,28.0,82,-99.99,,,-99.99,,2013-01-13 15:00:00,
2013-01-13 09:22:00,47.0,42.0,30.00,NNW,340,23.0,28.0,82,-99.99,,,-99.99,,2013-01-13 15:22:00,
2013-01-13 09:32:00,47.0,42.0,30.00,NNW,340,23.0,28.0,82,-99.99,,,-99.99,,2013-01-13 15:32:00,
2013-01-13 09:42:00,47.0,42.0,30.00,NNW,340,23.0,28.0,82,-99.99,,,-99.99,,2013-01-13 15:42:00,
2013-01-13 09:52:00,47.0,42.0,30.00,NNW,340,23.0,28.0,82,-99.99,,,-99.99,,2013-01-13 15:52:00,
2013-01-13 10:00:00,48.0,41.0,30.05,NNW,340,22.0,28.0,75,-99.99,,,-99.99,,2013-01-13 16:00:00,
2013-01-13 10:22:00,48.0,41.0,30.05,NNW,340,22.0,28.0,75,-99.99,,,-99.99,,2013-01-13 16:22:00,
2013-01-13 10:33:00,48.0,41.0,30.05,NNW,340,22.0,28.0,75,-99.99,,,-99.99,,2013-01-13 16:33:00,
2013-01-13 10:42:00,48.0,41.0,30.05,NNW,340,22.0,28.0,75,-99.99,,,-99.99,,2013-01-13 16:42:00,
2013-01-13 10:52:00,48.0,41.0,30.05,NNW,340,22.0,28.0,75,-99.99,,,-99.99,,2013-01-13 16:52:00,
2013-01-13 11:00:00,49.0,41.0,30.06,NNW,340,21.0,24.0,73,-99.99,,,-99.99,,2013-01-13 17:00:00,
2013-01-13 11:22:00,49.0,41.0,30.06,NNW,340,21.0,24.0,73,-99.99,,,-99.99,,2013-01-13 17:22:00,
2013-01-13 11:32:00,49.0,41.0,30.06,NNW,340,21.0,24.0,73,-99.99,,,-99.99,,2013-01-13 17:32:00,
2013-01-13 11:42:00,49.0,41.0,30.06,NNW,340,21.0,24.0,73,-99.99,,,-99.99,,2013-01-13 17:42:00,
2013-01-13 11:52:00,49.0,41.0,30.06,NNW,340,21.0,24.0,73,-99.99,,,-99.99,,2013-01-13 17:52:00,
2013-01-13 12:00:00,50.0,39.0,30.05,NNW,340,21.0,25.0,65,-99.99,,,-99.99,,2013-01-13 18:00:00,
2013-01-13 12:22:00,50.0,39.0,30.05,NNW,340,21.0,25.0,65,-99.99,,,-99.99,,2013-01-13 18:22:00,
2013-01-13 12:32:00,50.0,39.0,30.05,NNW,340,21.0,25.0,65,-99.99,,,-99.99,,2013-01-13 18:32:00,
2013-01-13 12:42:00,50.0,39.0,30.05,NNW,340,21.0,25.0,65,-99.99,,,-99.99,,2013-01-13 18:42:00,
2013-01-13 12:52:00,50.0,39.0,30.05,NNW,340,21.0,25.0,65,-99.99,,,-99.99,,2013-01-13 18:52:00,
2013-01-13 13:00:00,52.0,39.0,30.03,North,350,20.0,22.0,61,-99.99,,,-99.99,,2013-01-13 19:00:00,
2013-01-13 13:22:00,52.0,39.0,30.03,North,350,20.0,22.0,61,-99.99,,,-99.99,,2013-01-13 19:22:00,
2013-01-13 13:32:00,52.0,39.0,30.03,North,350,20.0,22.0,61,-99.99,,,-99.99,,2013-01-13 19:32:00,
2013-01-13 13:42:00,52.0,39.0,30.03,North,350,20.0,22.0,61,-99.99,,,-99.99,,2013-01-13 19:42:00,
2013-01-13 13:52:00,52.0,39.0,30.03,North,350,20.0,22.0,61,-99.99,,,-99.99,,2013-01-13 19:52:00,
2013-01-13 14:00:00,52.0,39.0,30.03,NNW,340,16.0,20.0,60,-99.99,,,-99.99,,2013-01-13 20:00:00,
2013-01-13 14:22:00,52.0,39.0,30.03,NNW,340,16.0,20.0,60,-99.99,,,-99.99,,2013-01-13 20:22:00,
2013-01-13 14:32:00,52.0,39.0,30.03,NNW,340,16.0,20.0,60,-99.99,,,-99.99,,2013-01-13 20:32:00,
2013-01-13 14:42:00,52.0,39.0,30.03,NNW,340,16.0,20.0,60,-99.99,,,-99.99,,2013-01-13 20:42:00,
2013-01-13 14:52:00,52.0,39.0,30.03,NNW,340,16.0,20.0,60,-99.99,,,-99.99,,2013-01-13 20:52:00,
2013-01-13 15:00:00,54.0,38.0,30.02,NNW,340,18.0,21.0,54,-99.99,,,-99.99,,2013-01-13 21:00:00,
2013-01-13 15:22:00,54.0,38.0,30.02,NNW,340,18.0,21.0,54,-99.99,,,-99.99,,2013-01-13 21:22:00,
2013-01-13 15:32:00,54.0,38.0,30.02,NNW,340,18.0,21.0,54,-99.99,,,-99.99,,2013-01-13 21:32:00,
2013-01-13 15:42:00,54.0,38.0,30.02,NNW,340,18.0,21.0,54,-99.99,,,-99.99,,2013-01-13 21:42:00,
2013-01-13 15:52:00,54.0,38.0,30.02,NNW,340,18.0,21.0,54,-99.99,,,-99.99,,2013-01-13 21:52:00,
2013-01-13 16:00:00,55.0,38.0,30.02,North,360,17.0,21.0,52,-99.99,,,-99.99,,2013-01-13 22:00:00,
2013-01-13 16:22:00,55.0,38.0,30.02,North,360,17.0,21.0,52,-99.99,,,-99.99,,2013-01-13 22:22:00,
2013-01-13 16:32:00,55.0,38.0,30.02,North,360,17.0,21.0,52,-99.99,,,-99.99,,2013-01-13 22:32:00,
2013-01-13 16:42:00,55.0,38.0,30.02,North,360,17.0,21.0,52,-99.99,,,-99.99,,2013-01-13 22:42:00,
2013-01-13 16:52:00,55.0,38.0,30.02,North,360,17.0,21.0,52,-99.99,,,-99.99,,2013-01-13 22:52:00,
2013-01-13 17:00:00,56.0,38.0,30.04,North,350,15.0,18.0,51,-99.99,,,-99.99,,2013-01-13 23:00:00,
2013-01-13 17:22:00,56.0,38.0,30.04,North,350,15.0,18.0,51,-99.99,,,-99.99,,2013-01-13 23:22:00,
2013-01-13 17:32:00,56.0,38.0,30.04,North,350,15.0,18.0,51,-99.99,,,-99.99,,2013-01-13 23:32:00,
2013-01-13 17:42:00,56.0,38.0,30.04,North,350,15.0,18.0,51,-99.99,,,-99.99,,2013-01-13 23:42:00,
2013-01-13 17:52:00,56.0,38.0,30.04,North,350,15.0,18.0,51,-99.99,,,-99.99,,2013-01-13 23:52:00,
2013-01-13 18:00:00,55.0,39.0,30.06,North,350,14.0,17.0,54,-99.99,,,-99.99,,2013-01-14 00:00:00,
2013-01-13 18:22:00,55.0,39.0,30.06,North,350,14.0,17.0,54,-99.99,,,-99.99,,2013-01-14 00:22:00,
2013-01-13 18:32:00,55.0,39.0,30.06,North,350,14.0,17.0,54,-99.99,,,-99.99,,2013-01-14 00:32:00,
2013-01-13 18:42:00,55.0,39.0,30.06,North,350,14.0,17.0,54,-99.99,,,-99.99,,2013-01-14 00:42:00,
2013-01-13 18:52:00,55.0,39.0,30.06,North,350,14.0,17.0,54,-99.99,,,-99.99,,2013-01-14 00:52:00,
2013-01-13 19:00:00,54.0,38.0,30.07,NNW,340,15.0,18.0,55,-99.99,,,-99.99,,2013-01-14 01:00:00,
2013-01-13 19:22:00,54.0,38.0,30.07,NNW,340,15.0,18.0,55,-99.99,,,-99.99,,2013-01-14 01:22:00,
2013-01-13 19:32:00,54.0,38.0,30.07,NNW,340,15.0,18.0,55,-99.99,,,-99.99,,2013-01-14 01:32:00,
2013-01-13 19:42:00,54.0,38.0,30.07,NNW,340,15.0,18.0,55,-99.99,,,-99.99,,2013-01-14 01:42:00,
2013-01-13 19:52:00,54.0,38.0,30.07,NNW,340,15.0,18.0,55,-99.99,,,-99.99,,2013-01-14 01:52:00,
2013-01-13 20:00:00,53.0,38.0,30.08,North,360,18.0,22.0,57,-99.99,,,-99.99,,2013-01-14 02:00:00,
2013-01-13 20:22:00,53.0,38.0,30.08,North,360,18.0,22.0,57,-99.99,,,-99.99,,2013-01-14 02:22:00,
2013-01-13 20:32:00,53.0,38.0,30.08,North,360,18.0,22.0,57,-99.99,,,-99.99,,2013-01-14 02:32:00,
2013-01-13 20:42:00,53.0,38.0,30.08,North,360,18.0,22.0,57,-99.99,,,-99.99,,2013-01-14 02:42:00,
2013-01-13 20:52:00,53.0,38.0,30.08,North,360,18.0,22.0,57,-99.99,,,-99.99,,2013-01-14 02:52:00,
2013-01-13 21:00:00,52.0,38.0,30.10,North,360,16.0,21.0,58,-99.99,,,-99.99,,2013-01-14 03:00:00,
2013-01-13 21:22:00,52.0,38.0,30.10,North,360,16.0,21.0,58,-99.99,,,-99.99,,2013-01-14 03:22:00,
2013-01-13 21:32:00,52.0,38.0,30.10,North,360,16.0,21.0,58,-99.99,,,-99.99,,2013-01-14 03:32:00,
2013-01-13 21:42:00,52.0,38.0,30.10,North,360,16.0,21.0,58,-99.99,,,-99.99,,2013-01-14 03:42:00,
2013-01-13 21:52:00,52.0,38.0,30.10,North,360,16.0,21.0,58,-99.99,,,-99.99,,2013-01-14 03:52:00,
2013-01-13 22:00:00,51.0,38.0,30.10,North,360,21.0,24.0,61,-99.99,,,-99.99,,2013-01-14 04:00:00,
2013-01-13 22:22:00,51.0,38.0,30.10,North,360,21.0,24.0,61,-99.99,,,-99.99,,2013-01-14 04:22:00,
2013-01-13 22:32:00,51.0,38.0,30.10,North,360,21.0,24.0,61,-99.99,,,-99.99,,2013-01-14 04:32:00,
2013-01-13 22:42:00,51.0,38.0,30.10,North,360,21.0,24.0,61,-99.99,,,-99.99,,2013-01-14 04:42:00,
2013-01-13 22:52:00,51.0,38.0,30.10,North,360,21.0,24.0,61,-99.99,,,-99.99,,2013-01-14 04:52:00,
2013-01-13 23:00:00,51.0,39.0,30.08,North,10,26.0,30.0,63,-99.99,,,-99.99,,2013-01-14 05:00:00,
2013-01-13 23:22:00,51.0,39.0,30.08,North,10,26.0,30.0,63,-99.99,,,-99.99,,2013-01-14 05:22:00,
2013-01-13 23:32:00,51.0,39.0,30.08,North,10,26.0,30.0,63,-99.99,,,-99.99,,2013-01-14 05:32:00,
2013-01-13 23:42:00,51.0,39.0,30.08,North,10,26.0,30.0,63,-99.99,,,-99.99,,2013-01-14 05:42:00,
2013-01-13 23:52:00,51.0,39.0,30.08,North,10,26.0,30.0,63,-99.99,,,-99.99,,2013-01-14 05:52:00,